Regional Weather Roundup
Issued by NWS Kansas City/Pleasant Hill, MO

Home | Current Version | Previous Version | Text Only | Print | Product List | Glossary On
Versions: 1 2 3 4 5 6 7 8 9 10 11 12 13 14 15 16 17 18 19 20 21 22 23 24 25 26 27 28 29 30 31 32 33 34 35 36 37 38 39 40 41 42 43 44 45 46 47 48 49 50
000
ASUS43 KEAX 281204
RWREAX

WEATHER ROUNDUP FOR EASTERN KANSAS AND NORTHWEST MISSOURI
NATIONAL WEATHER SERVICE KANSAS CITY/PLEASANT HILL MO
700 AM CDT SAT MAR 28 2015

KSZ040-057-103>105-MOZ028-029-037-043-281300-
...KANSAS CITY METROPOLITAN AREA...

CITY           SKY/WX    TMP DP  RH WIND       PRES   REMARKS
K.C. INTL      CLOUDY    36  28  73 E13       30.13R WCI  27
6HR MIN TEMP:  36; 6HR MAX TEMP:  39;

K.C. DOWNTOWN  CLOUDY    38  27  64 E10       30.15R WCI  31
6HR MIN TEMP:  38; 6HR MAX TEMP:  41;

LEES SUMMIT    CLOUDY    36  27  69 E12       30.14R WCI  28
6HR MIN TEMP:  36; 6HR MAX TEMP:  39;

OLATHE - IXD   CLOUDY    37  25  61 E9        30.13R WCI  30
6HR MIN TEMP:  37; 6HR MAX TEMP:  39;

OLATHE - OJC   CLOUDY    37  25  61 E9        30.12R WCI  30
6HR MIN TEMP:  37; 6HR MAX TEMP:  39;

LAWRENCE       CLOUDY    37  25  61 E12       30.12R WCI  29

$$

MOZ001>008-011>017-020>025-030>033-038>040-044>046-053-054-281300-
...NORTHERN AND CENTRAL MISSOURI...

CITY           SKY/WX    TMP DP  RH WIND       PRES   REMARKS
ST. JOSEPH     CLOUDY    35  28  75 SE9       30.15R WCI  28
6HR MIN TEMP:  35; 6HR MAX TEMP:  38;

MOSBY          CLOUDY    36  30  80 E8        30.17R WCI  29
WARRENSBURG    FLURRIES  34  30  86 E7        30.17R WCI  28
WHITEMAN AFB   LGT RAIN  35  30  82 E8        30.16R WCI  28
6HR MIN TEMP:  35; 6HR MAX TEMP:  39; 6HR PCP: TRACE;

CLINTON        CLOUDY    37  30  75 E8        30.15S WCI  31
SEDALIA        CLOUDY    35  30  82 SE6       30.19R WCI  30
6HR MIN TEMP:  34; 6HR MAX TEMP:  40; 6HR PCP:  0.01;

WARSAW         NOT AVBL
MARSHALL       CLOUDY    37  32  81 E6        30.21R WCI  33
CHILLICOTHE      N/A     33  27  78 E7        30.21R WCI  27
6HR MIN TEMP:  33; 6HR MAX TEMP:  39;

MOBERLY        CLOUDY    32  19  59 E6        30.23  WCI  26
KIRKSVILLE     CLOUDY    30  20  66 SE7       30.22R WCI  23
6HR MIN TEMP:  28; 6HR MAX TEMP:  31;


$$

MOZ041-047>049-056>058-063>065-088>090-097-281300-
...EASTERN AND SOUTHERN MISSOURI...

CITY           SKY/WX    TMP DP  RH WIND       PRES   REMARKS
ST. LOUIS INTL MOCLDY    30  17  58 E7        30.26R WCI  23
6HR MIN TEMP:  28; 6HR MAX TEMP:  32;

SPIRIT OF STL  PTCLDY    27  21  78 CALM      30.26R
COLUMBIA       CLOUDY    32  21  64 SE6       30.21R WCI  26
JEFFERSON CITY CLOUDY    34  23  64 E6        30.23R WCI  29
MEXICO         MOCLDY    32  25  74 SE5       30.22  WCI  27
HANNIBAL       PTCLDY    28  18  64 E5        30.25R WCI  23
ROLLA          CLOUDY    31  23  72 SE7       30.19R WCI  24
OSAGE BEACH    CLOUDY    34  28  80 SE6       30.20R WCI  29
SPRINGFIELD    CLOUDY    39  23  52 SE12      30.13R WCI  32
BRANSON        CLOUDY    37  27  65 E9        30.14S WCI  31
NEVADA         LGT RAIN  37  30  75 E10       30.12F WCI  30
JOPLIN         CLOUDY    41  28  60 E7        30.09S
WEST PLAINS    LGT SNOW  34  25  69 SE6       30.20R WCI  29

$$

IAZ060-094-KSZ022-034>040-054-083-096-NEZ052-066-093-281300-
...KANSAS...SOUTHEAST NEBRASKA AND IOWA...

CITY           SKY/WX    TMP DP  RH WIND       PRES   REMARKS
TOPEKA         CLOUDY    39  26  59 E12       30.11R WCI  32
6HR MIN TEMP:  39; 6HR MAX TEMP:  40;

MANHATTAN      PTCLDY    37  26  64 E6        30.04R WCI  32
EMPORIA        PTCLDY    37  28  70 SE9       30.04R WCI  30
CHANUTE        MOCLDY    41  30  65 SE10      30.07R WCI  35
WICHITA        PTCLDY    39  30  70 S9        30.00R WCI  33
OMAHA          MOCLDY    34  26  72 SE12      30.13R WCI  25
LINCOLN        PTCLDY    32  24  72 SE7       30.11R WCI  26
FALLS CITY     MOCLDY    34  27  75 E13       30.11R WCI  25
LAMONI         CLOUDY    32  22  66 SE7       30.17R WCI  26
DES MOINES     CLOUDY    32  13  45 SE6       30.20R WCI  26

$$



USA.gov is the U.S. government's official web portal to all federal, state and local government web resources and services.